Weather History for Bowling Green, KY

Change the Weather History Date:

Tuesday, August 20, 2013

  Actual Average Record
Temperature  
Mean Temperature 76 °F 77 °F  
Max Temperature 85 °F 89 °F 103 °F (1936)
Min Temperature 67 °F 66 °F 53 °F (1953)
Degree Days  
Heating Degree Days 0 0  
Month to date heating degree days 0 0  
Since 1 June heating degree days 0 5  
Since 1 July heating degree days 0 0  
Cooling Degree Days 11 12  
Month to date cooling degree days 200 260  
Year to date cooling degree days 1103 1141  
Since 1 June cooling degree days 890 988  
Growing Degree Days 26 (Base 50)    
Moisture  
Dew Point 70 °F    
Average Humidity 81    
Maximum Humidity 97    
Minimum Humidity 65    
Precipitation  
Precipitation 0.01 in 0.11 in 2.29 in (1994)
Month to date precipitation 5.07 2.06  
Year to date precipitation 41.64 32.29  
Snow  
Snow 0.00 in 0.00 in 0.00 in ()
Month to date snowfall 0.0 0.0  
Since 1 June snowfall 0.0 0.0  
Since 1 July snowfall 0.0 0.0  
Snow Depth 0.00 in    
Sea Level Pressure  
Sea Level Pressure 30.10 in    
Wind  
Wind Speed 3 mph (SSE)    
Max Wind Speed 13 mph    
Max Gust Speed 17 mph    
Visibility 10 miles    
Events Rain , Thunderstorm    
T = Trace of Precipitation, MM = Missing Value Source: NWS Daily Summary

Daily Weather History Graph

Daily Weather History Graph

Search for Another Location

Airport:

Trip Planner

Search our weather history database for the weather conditions in past years. The results will help you decide how hot, cold, wet, or windy it might be!

Date:

Astronomy

Aug. 20, 2013 Rise Set
Actual Time 6:06 AM CDT 7:30 PM CDT
Civil Twilight 5:39 AM CDT 7:57 PM CDT
Nautical Twilight 5:06 AM CDT 8:30 PM CDT
Astronomical Twilight 4:32 AM CDT 9:04 PM CDT
Moon 7:03 PM CDT (8/20) 5:35 AM CDT (8/20)
Length of Visible Light 14h 17m
Length of Day
13h 23m
Full, 100% of the Moon is Illuminated
Aug 20
Full
Aug 20
Full
Aug 28
Last Quarter
Sep 5
New
Sep 12
First Quarter

Hourly Weather History & Observations

Time (CDT) Temp. Heat Index Dew Point Humidity Pressure Visibility Wind Dir Wind Speed Gust Speed Precip Events Conditions
12:53 AM 69.1 °F - 66.0 °F 90% 30.08 in 10.0 mi Calm Calm - N/A   Clear
1:53 AM 71.1 °F - 66.9 °F 87% 30.07 in 10.0 mi Calm Calm - N/A   Mostly Cloudy
2:53 AM 69.1 °F - 66.9 °F 93% 30.07 in 10.0 mi Calm Calm - N/A   Overcast
3:53 AM 69.1 °F - 66.9 °F 93% 30.06 in 10.0 mi Calm Calm - N/A   Overcast
4:53 AM 69.1 °F - 66.9 °F 93% 30.07 in 10.0 mi Calm Calm - N/A   Overcast
5:53 AM 69.1 °F - 66.9 °F 93% 30.09 in 10.0 mi Calm Calm - N/A   Overcast
6:53 AM 70.0 °F - 68.0 °F 93% 30.11 in 10.0 mi Calm Calm - N/A   Overcast
7:53 AM 72.0 °F - 69.1 °F 91% 30.12 in 10.0 mi ESE 3.5 mph - N/A   Clear
8:53 AM 75.0 °F - 70.0 °F 84% 30.13 in 10.0 mi South 4.6 mph - N/A   Overcast
9:53 AM 77.0 °F - 71.1 °F 82% 30.14 in 10.0 mi Calm Calm - N/A   Mostly Cloudy
10:53 AM 80.1 °F 83.2 °F 70.0 °F 71% 30.14 in 10.0 mi ESE 3.5 mph - N/A   Mostly Cloudy
11:09 AM 80.6 °F 84.6 °F 71.6 °F 74% 30.15 in 10.0 mi South 4.6 mph - N/A   Mostly Cloudy
11:33 AM 80.6 °F 84.6 °F 71.6 °F 74% 30.15 in 10.0 mi South 5.8 mph - N/A   Mostly Cloudy
11:53 AM 81.0 °F 84.4 °F 70.0 °F 69% 30.13 in 10.0 mi South 3.5 mph - N/A   Partly Cloudy
12:53 PM 82.9 °F 87.0 °F 70.0 °F 65% 30.11 in 10.0 mi SE 3.5 mph - N/A   Partly Cloudy
1:53 PM 82.0 °F 85.9 °F 70.0 °F 67% 30.09 in 10.0 mi ESE 9.2 mph - N/A   Partly Cloudy
2:13 PM 80.6 °F 83.9 °F 69.8 °F 70% 30.10 in 10.0 mi ESE 8.1 mph - N/A Thunderstorm Clear
2:26 PM 80.6 °F 83.9 °F 69.8 °F 70% 30.10 in 10.0 mi SE 6.9 mph - N/A Thunderstorm Partly Cloudy
2:32 PM 80.6 °F 83.9 °F 69.8 °F 70% 30.10 in 1.8 mi SE 5.8 mph - N/A Thunderstorm Haze
2:44 PM 80.6 °F 83.9 °F 69.8 °F 70% 30.10 in 10.0 mi SSE 5.8 mph - 0.00 in Rain Light Rain
2:53 PM 80.1 °F 83.6 °F 71.1 °F 74% 30.09 in 10.0 mi South 10.4 mph 16.1 mph 0.00 in Rain , Thunderstorm Light Rain
3:10 PM 75.2 °F - 71.6 °F 89% 30.12 in 10.0 mi West 10.4 mph - 0.01 in Rain , Thunderstorm Light Rain
3:34 PM 75.2 °F - 69.8 °F 83% 30.11 in 10.0 mi NW 4.6 mph - 0.01 in Rain , Thunderstorm Light Thunderstorms and Rain
3:53 PM 79.0 °F - 70.0 °F 74% 30.08 in 10.0 mi Variable 3.5 mph - 0.01 in   Scattered Clouds
4:53 PM 82.0 °F 86.3 °F 71.1 °F 69% 30.06 in 10.0 mi ESE 6.9 mph - N/A   Clear
5:53 PM 82.0 °F 86.7 °F 72.0 °F 71% 30.07 in 10.0 mi Calm Calm - N/A   Partly Cloudy
6:53 PM 79.0 °F - 70.0 °F 74% 30.07 in 10.0 mi SE 3.5 mph - N/A   Clear
7:53 PM 75.9 °F - 70.0 °F 82% 30.08 in 10.0 mi SE 3.5 mph - N/A   Clear
8:53 PM 75.9 °F - 71.1 °F 85% 30.10 in 10.0 mi SE 5.8 mph - N/A   Clear
9:53 PM 73.9 °F - 71.1 °F 91% 30.11 in 10.0 mi Calm Calm - N/A   Clear
10:53 PM 73.9 °F - 69.1 °F 85% 30.11 in 10.0 mi SSE 3.5 mph - N/A   Clear
11:53 PM 73.9 °F - 69.1 °F 85% 30.11 in 10.0 mi SSE 3.5 mph - N/A   Clear